TimePDT,TemperatureF,Dew PointF,Humidity,Sea Level PressureIn,VisibilityMPH,Wind Direction,Wind SpeedMPH,Gust SpeedMPH,PrecipitationIn,Events,Conditions,WindDirDegrees,DateUTC
12:53 AM,53.1,52.0,96,30.06,10.0,Calm,Calm,-,N/A,,Clear,0,2012-11-02 07:53:00
1:45 AM,53.6,51.8,94,30.06,10.0,Calm,Calm,-,N/A,,Partly Cloudy,0,2012-11-02 08:45:00
1:53 AM,53.1,51.1,93,30.06,10.0,Calm,Calm,-,N/A,,Scattered Clouds,0,2012-11-02 08:53:00
2:00 AM,51.8,51.8,100,30.06,9.0,Calm,Calm,-,N/A,,Mostly Cloudy,0,2012-11-02 09:00:00
2:30 AM,51.8,51.8,100,30.06,10.0,Calm,Calm,-,N/A,,Scattered Clouds,0,2012-11-02 09:30:00
2:53 AM,51.1,50.0,96,30.06,9.0,Calm,Calm,-,N/A,,Clear,0,2012-11-02 09:53:00
3:09 AM,50.0,48.2,94,30.06,8.0,Calm,Calm,-,N/A,,Partly Cloudy,0,2012-11-02 10:09:00
3:53 AM,50.0,48.9,96,30.05,6.0,Calm,Calm,-,N/A,,Partly Cloudy,0,2012-11-02 10:53:00
4:08 AM,48.2,48.2,100,30.05,9.0,Calm,Calm,-,N/A,,Mostly Cloudy,0,2012-11-02 11:08:00
4:22 AM,48.2,48.2,100,30.05,10.0,Calm,Calm,-,N/A,,Overcast,0,2012-11-02 11:22:00
4:38 AM,48.2,48.2,100,30.05,1.5,Calm,Calm,-,N/A,,Overcast,0,2012-11-02 11:38:00
4:44 AM,50.0,48.2,94,30.05,0.2,Calm,Calm,-,N/A,Fog,Fog,0,2012-11-02 11:44:00
4:53 AM,50.0,48.9,96,30.05,0.2,Calm,Calm,-,N/A,Fog,Fog,0,2012-11-02 11:53:00
5:03 AM,48.2,48.2,100,30.06,0.2,Calm,Calm,-,N/A,Fog,Fog,0,2012-11-02 12:03:00
5:21 AM,50.0,48.2,94,30.06,0.2,Calm,Calm,-,N/A,Fog,Fog,0,2012-11-02 12:21:00
5:43 AM,50.0,48.2,94,30.06,0.8,Calm,Calm,-,0.01,,Mist,0,2012-11-02 12:43:00
5:50 AM,48.2,48.2,100,30.06,0.8,Calm,Calm,-,0.01,,Mist,0,2012-11-02 12:50:00
5:53 AM,48.9,48.9,100,30.06,0.8,Calm,Calm,-,0.01,,Mist,0,2012-11-02 12:53:00
6:07 AM,48.2,48.2,100,30.07,0.2,Calm,Calm,-,N/A,Fog,Fog,0,2012-11-02 13:07:00
6:21 AM,48.2,48.2,100,30.06,0.2,Calm,Calm,-,N/A,Fog,Fog,0,2012-11-02 13:21:00
6:42 AM,50.0,50.0,100,30.06,0.2,Calm,Calm,-,N/A,Fog,Fog,0,2012-11-02 13:42:00
6:50 AM,50.0,50.0,100,30.06,0.5,Calm,Calm,-,N/A,Fog,Fog,0,2012-11-02 13:50:00
6:53 AM,50.0,50.0,100,30.06,0.5,Calm,Calm,-,N/A,Fog,Fog,0,2012-11-02 13:53:00
7:09 AM,50.0,50.0,100,30.06,1.2,Calm,Calm,-,N/A,,Overcast,0,2012-11-02 14:09:00
7:26 AM,50.0,50.0,100,30.06,0.8,Calm,Calm,-,N/A,,Overcast,0,2012-11-02 14:26:00
7:41 AM,50.0,48.2,94,30.06,0.2,Calm,Calm,-,N/A,Fog,Fog,0,2012-11-02 14:41:00
7:53 AM,50.0,48.9,96,30.06,0.2,Calm,Calm,-,N/A,Fog,Fog,0,2012-11-02 14:53:00
8:06 AM,48.2,48.2,100,30.06,0.2,Calm,Calm,-,N/A,Fog,Fog,0,2012-11-02 15:06:00
8:19 AM,50.0,48.2,94,30.07,0.2,WNW,4.6,-,N/A,Fog,Fog,290,2012-11-02 15:19:00
8:45 AM,48.2,48.2,100,30.08,0.1,NW,3.5,-,N/A,Fog,Fog,310,2012-11-02 15:45:00
8:53 AM,50.0,48.9,96,30.08,0.1,West,4.6,-,N/A,Fog,Fog,280,2012-11-02 15:53:00
9:00 AM,48.2,48.2,100,30.08,0.2,West,3.5,-,N/A,Fog,Fog,270,2012-11-02 16:00:00
9:15 AM,48.2,48.2,100,30.09,1.0,West,3.5,-,N/A,,Overcast,260,2012-11-02 16:15:00
9:18 AM,50.0,48.2,94,30.09,1.0,Calm,Calm,-,N/A,,Overcast,0,2012-11-02 16:18:00
9:27 AM,50.0,48.2,94,30.09,3.0,Calm,Calm,-,N/A,,Overcast,0,2012-11-02 16:27:00
9:53 AM,50.0,50.0,100,30.09,8.0,Calm,Calm,-,N/A,,Mostly Cloudy,0,2012-11-02 16:53:00
10:53 AM,55.0,48.9,80,30.09,10.0,Calm,Calm,-,N/A,,Mostly Cloudy,0,2012-11-02 17:53:00
11:17 AM,57.2,46.4,67,30.08,10.0,Calm,Calm,-,N/A,,Partly Cloudy,0,2012-11-02 18:17:00
11:53 AM,60.1,48.0,64,30.07,10.0,Calm,Calm,-,N/A,,Clear,0,2012-11-02 18:53:00
12:53 PM,64.9,51.1,61,30.05,10.0,Calm,Calm,-,N/A,,Clear,0,2012-11-02 19:53:00
1:53 PM,66.9,51.1,57,30.02,10.0,SSW,5.8,-,N/A,,Clear,210,2012-11-02 20:53:00
2:53 PM,68.0,51.1,55,30.02,10.0,South,4.6,-,N/A,,Clear,190,2012-11-02 21:53:00
3:53 PM,70.0,51.1,51,30.02,10.0,West,8.1,-,N/A,,Clear,260,2012-11-02 22:53:00
4:53 PM,68.0,51.1,55,30.01,10.0,WNW,5.8,-,N/A,,Clear,290,2012-11-02 23:53:00
5:53 PM,63.0,51.1,65,30.02,10.0,West,10.4,-,N/A,,Clear,270,2012-11-03 00:53:00
6:53 PM,61.0,51.1,70,30.03,10.0,West,4.6,-,N/A,,Clear,260,2012-11-03 01:53:00
7:53 PM,60.1,50.0,69,30.04,10.0,NW,6.9,-,N/A,,Clear,310,2012-11-03 02:53:00
8:53 PM,57.0,48.9,74,30.04,10.0,Calm,Calm,-,N/A,,Clear,0,2012-11-03 03:53:00
9:53 PM,55.9,50.0,80,30.06,10.0,Calm,Calm,-,N/A,,Clear,0,2012-11-03 04:53:00
10:53 PM,54.0,48.9,83,30.07,10.0,Calm,Calm,-,N/A,,Clear,0,2012-11-03 05:53:00
11:53 PM,52.0,48.9,89,30.08,10.0,Calm,Calm,-,N/A,,Clear,0,2012-11-03 06:53:00